Charleston, SC

1:06 AM EST on February 23, 2017 (GMT -0500)
Charleston Air Force Base-International

Weather History for KCHS - August, 2013

Change the Weather History Date:

Sunday, August 25, 2013

  Actual Average Record
Temperature  
Mean Temperature 77 °F 80 °F  
Max Temperature 86 °F 89 °F 96 °F (1938)
Min Temperature 68 °F 72 °F 60 °F (1997)
Degree Days  
Heating Degree Days 0 0  
Month to date heating degree days 0 0  
Since 1 June heating degree days 0 1  
Since 1 July heating degree days 0 0  
Cooling Degree Days 12 15  
Month to date cooling degree days 418 405  
Year to date cooling degree days 1758 1717  
Since 1 June cooling degree days 1411 1355  
Growing Degree Days 27 (Base 50)    
Moisture  
Dew Point 63 °F    
Average Humidity 64    
Maximum Humidity 87    
Minimum Humidity 40    
Precipitation  
Precipitation 0.00 in 0.26 in 3.00 in (1970)
Month to date precipitation 3.95 5.66  
Year to date precipitation 46.06 34.15  
Sea Level Pressure  
Sea Level Pressure 30.25 in    
Wind  
Wind Speed 9 mph (NE)    
Max Wind Speed 20 mph    
Max Gust Speed 26 mph    
Visibility 10 miles    
Events      
T = Trace of Precipitation, MM = Missing Value Source: NWS Daily Summary

Daily Weather History Graph

Daily Weather History Graph

Search for Another Location

Airport or City:

Trip Planner

Search our weather history database for the weather conditions in past years. The results will help you decide how hot, cold, wet, or windy it might be!

Date:

Astronomy

Aug. 25, 2013 Rise Set
Actual Time 6:50 AM EDT 7:53 PM EDT
Civil Twilight 6:24 AM EDT 8:18 PM EDT
Nautical Twilight 5:54 AM EDT 8:49 PM EDT
Astronomical Twilight 5:23 AM EDT 9:20 PM EDT
Moon 10:43 PM EDT (8/25) 11:31 AM EDT (8/25)
Length of Visible Light 13h 54m
Length of Day
13h 03m
Waning Gibbous, 76% of the Moon is Illuminated
Aug 25
Waning Gibbous
Aug 28
Last Quarter
Sep 5
New
Sep 12
First Quarter
Sep 19
Full

Hourly Weather History & Observations

Time (EDT) Temp. Heat Index Dew Point Humidity Pressure Visibility Wind Dir Wind Speed Gust Speed Precip Events Conditions
12:56 AM 72.0 °F - 66.0 °F 81% 30.22 in 10.0 mi NE 6.9 mph - N/A   Clear
1:56 AM 72.0 °F - 66.0 °F 81% 30.22 in 10.0 mi NE 8.1 mph - N/A   Clear
2:56 AM 71.1 °F - 66.0 °F 84% 30.22 in 10.0 mi NNE 8.1 mph - N/A   Clear
3:56 AM 70.0 °F - 64.9 °F 84% 30.22 in 10.0 mi NNE 8.1 mph - N/A   Clear
4:56 AM 69.1 °F - 64.0 °F 84% 30.22 in 10.0 mi NNE 9.2 mph - N/A   Clear
5:56 AM 68.0 °F - 64.0 °F 87% 30.24 in 10.0 mi NNE 8.1 mph - N/A   Clear
6:56 AM 68.0 °F - 64.0 °F 87% 30.25 in 10.0 mi NNE 6.9 mph - N/A   Partly Cloudy
7:56 AM 69.1 °F - 64.0 °F 84% 30.27 in 10.0 mi NNE 6.9 mph - N/A   Partly Cloudy
8:56 AM 72.0 °F - 64.0 °F 76% 30.29 in 10.0 mi NE 10.4 mph - N/A   Partly Cloudy
9:56 AM 75.9 °F - 66.0 °F 71% 30.29 in 10.0 mi NNE 15.0 mph 20.7 mph N/A   Scattered Clouds
10:56 AM 79.0 °F - 64.9 °F 62% 30.30 in 10.0 mi NE 13.8 mph 21.9 mph N/A   Scattered Clouds
11:56 AM 82.0 °F 82.0 °F 57.9 °F 44% 30.29 in 10.0 mi NE 16.1 mph 24.2 mph N/A   Scattered Clouds
12:56 PM 82.9 °F 82.6 °F 57.9 °F 42% 30.28 in 10.0 mi NNE 13.8 mph - N/A   Scattered Clouds
1:56 PM 84.0 °F 83.8 °F 59.0 °F 43% 30.27 in 10.0 mi NNE 10.4 mph 18.4 mph N/A   Scattered Clouds
2:56 PM 84.9 °F 84.2 °F 57.9 °F 40% 30.25 in 10.0 mi NE 13.8 mph - N/A   Scattered Clouds
3:56 PM 84.9 °F 84.4 °F 59.0 °F 41% 30.23 in 10.0 mi Variable 6.9 mph - N/A   Mostly Cloudy
4:56 PM 82.9 °F 83.2 °F 60.1 °F 46% 30.23 in 10.0 mi NNE 12.7 mph - N/A   Mostly Cloudy
5:56 PM 82.0 °F 82.7 °F 61.0 °F 49% 30.23 in 10.0 mi ENE 12.7 mph - N/A   Mostly Cloudy
6:56 PM 79.0 °F - 64.0 °F 60% 30.23 in 10.0 mi ENE 6.9 mph - N/A   Mostly Cloudy
7:56 PM 77.0 °F - 63.0 °F 62% 30.25 in 10.0 mi NE 6.9 mph - N/A   Mostly Cloudy
8:56 PM 73.9 °F - 64.0 °F 71% 30.26 in 10.0 mi NE 4.6 mph - N/A   Mostly Cloudy
9:56 PM 73.0 °F - 64.9 °F 76% 30.27 in 10.0 mi NNE 4.6 mph - N/A   Mostly Cloudy
10:56 PM 73.0 °F - 64.9 °F 76% 30.27 in 10.0 mi NNE 5.8 mph - N/A   Mostly Cloudy
11:56 PM 72.0 °F - 64.0 °F 76% 30.27 in 10.0 mi NNE 6.9 mph - N/A   Scattered Clouds